Flight Track Log - Related Links

Times and Time Zones

All times are in EDT time to prevent confusion due to time zone crossing. See the UCA4838 flight status page for this flight to view local times or setup timezone preferences in your user account.

Time Position Orientation Groundspeed Altitude Reporting Facility
EDT Latitude Longitude Course Direction KTS MPH feet Rate Location/Type
Mon 09:35:16 AM 42.7464 -73.8142 209° Southwest 122 140 1,000  Level Boston Center
Mon 09:36:00 AM 42.7439 -73.8564 265° West 134 154 2,200 1,543 Climbing Boston Center
Mon 09:37:01 AM 42.6997 -73.8808 202° Southwest 177 204 3,700 1,328 Climbing Boston Center
Mon 09:38:02 AM 42.6575 -73.9139 210° Southwest 181 208 4,900 1,289 Climbing Boston Center
Mon 09:39:02 AM 42.6072 -73.9436 204° Southwest 189 217 6,300 1,289 Climbing Boston Center
Mon 09:40:00 AM 42.3689 -73.8716 209° Southwest  Level Estimated
Mon 09:40:03 AM 42.5589 -73.9733 204° Southwest 195 224 7,500  Level Boston Center
Mon 09:41:04 AM 42.5106 -74.0061 207° Southwest 198 228 8,800 1,240 Climbing Boston Center
Mon 09:42:04 AM 42.4642 -74.0386 207° Southwest 193 222 10,000 595 Climbing Boston Center
Mon 09:43:05 AM 42.4075 -74.0739 205° Southwest 220 253 10,000  Level Boston Center
Mon 09:43:44 AM 42.3675 -74.0981 204° Southwest 255 293 10,000  Level Boston Center
Mon 09:44:44 AM 42.3086 -74.1386 207° Southwest 255 293 10,000  Level Boston Center
Mon 09:45:44 AM 42.2494 -74.1761 205° Southwest 249 287 10,000  Level Boston Center
Mon 09:46:44 AM 42.1928 -74.2139 206° Southwest 243 280 10,000  Level Boston Center
Mon 09:47:44 AM 42.1358 -74.2572 209° Southwest 243 280 10,000  Level Boston Center
Mon 09:48:44 AM 42.0808 -74.2975 209° Southwest 238 274 10,000  Level Boston Center
Mon 09:49:44 AM 42.0219 -74.3378 207° Southwest 238 274 10,000 -227 Level Boston Center
Mon 09:50:56 AM 41.9608 -74.3722 203° Southwest 238 274 9,500 -636 Descending Boston Center
Mon 09:51:56 AM 41.8853 -74.4006 196° South 253 291 8,600 -850 Descending Boston Center
Mon 09:52:56 AM 41.8119 -74.4289 196° South 253 291 7,800 -800 Descending Boston Center
Mon 09:53:56 AM 41.7508 -74.4575 199° South 253 291 7,000 -400 Descending Boston Center
Mon 09:54:56 AM 41.6775 -74.4858 196° South 253 291 7,000 -136 Level Boston Center
Mon 09:56:08 AM 41.5978 -74.5139 195° South 253 291 6,700 -455 Descending Boston Center
Mon 09:57:08 AM 41.5389 -74.5397 198° South 247 284 6,000 -350 Descending Boston Center
Mon 09:58:08 AM 41.4717 -74.5678 197° South 247 284 6,000  Level Boston Center
Mon 09:59:45 AM 41.3667 -74.6000 193° South 222 255 6,000  Level New York TRACON
Mon 10:00:45 AM 41.3167 -74.6333 207° Southwest 225 259 6,000 -100 Level New York TRACON
Mon 10:01:45 AM 41.2500 -74.6000 159° South 228 262 5,800 -500 Descending New York TRACON
Mon 10:02:45 AM 41.2000 -74.5333 135° Southeast 258 297 5,000 -421 Descending New York TRACON
Mon 10:03:39 AM 41.1667 -74.4667 124° Southeast 255 293 5,000  Level New York TRACON
Mon 10:04:39 AM 41.1167 -74.4167 143° Southeast 248 285 5,000  Level New York TRACON
Mon 10:05:39 AM 41.0667 -74.3500 135° Southeast 247 284 5,000  Level New York TRACON
Mon 10:06:33 AM 41.0333 -74.2833 124° Southeast 240 276 5,000 -158 Level New York TRACON
Mon 10:07:33 AM 40.9833 -74.2167 135° Southeast 226 260 4,700 -500 Descending New York TRACON
Mon 10:08:33 AM 40.9667 -74.1500 108° East 204 235 4,000 -350 Descending New York TRACON
Mon 10:09:33 AM 40.9333 -74.1000 131° Southeast 186 214 4,000 -500 Level New York TRACON
Mon 10:10:33 AM 40.8833 -74.0833 166° South 179 206 3,000 -700 Descending New York TRACON
Mon 10:11:33 AM 40.8333 -74.0833 180° South 174 200 2,600 -400 Descending New York TRACON
Mon 10:12:33 AM 40.8000 -74.1000 201° Southwest 173 199 2,200 -700 Descending New York TRACON
Mon 10:13:33 AM 40.7500 -74.1333 207° Southwest 165 190 1,200 -900 Descending New York TRACON
Mon 10:14:33 AM 40.7167 -74.1500 201° Southwest 124 143 400 -800 Descending New York TRACON

Login

Don't have an account? Register now (free) for customized features, flight alerts, and more!